EHI
3 3 3 3 3 3 3 3 2 1 0 0 0 0 0 0 0 0 0 0 0 0 0 0 0 0 0 0 0 0 0 0 0 0 0 0 0 0 0 0 0 0 0
3 3 3 3 3 3 3 3 3 1 0 0 0 0 0 0 0 0 0 0 0 0 0 0 0 0 0 0 0 0 0 0 0 0 0 0 0 0 0 0 0 0 0
3 3 3 3 3 3 3 3 3 2 1 0 0 0 0 0 0 0 0 0 0 0 0 0 0 0 0 0 0 0 0 0 0 0 0 0 0 0 0 0 0 0 0
2 3 3 3 3 3 3 3 3 2 1 0 0 0 0 0 0 0 0 0 0 0 0 0 0 0 0 0 0 0 0 0 0 0 0 0 0 0 0 0 0 0 0
1 1 2 3 3 3 3 2 2 2 1 0 0 0 0 0 0 0 0 0 0 0 0 0 0 0 0 0 0 0 0 0 0 0 0 0 0 0 0 0 0 0 0
0 0 1 1 2 2 1 1 1 1 0 0 0 0 0 0 0 0 0 0 0 0 0 0 0 0 0 0 0 0 0 0 0 0 0 0 0 0 0 0 0 0 0
0 0 0 0 1 1 0 0 0 0 0 0 0 0 0 0 0 0 0 0 0 0 0 0 0 0 0 0 0 0 0 0 0 0 0 0 0 0 0 0 0 0 0
0 0 0 0 0 0 0 0 0 0 0 0 0 0 0 0 0 0 0 0 0 0 0 0 0 0 0 0 0 0 0 0 0 0 0 0 0 0 0 0 0 0 0
0 0 0 0 0 0 0 0 0 0 0 0 0 0 0 0 0 0 0 0 0 0 0 0 0 0 0 0 0 0 0 0 0 0 0 0 0 0 0 0 0 0 0
0 0 0 0 0 0 0 0 0 0 0 0 0 0 0 0 0 0 0 0 0 0 0 0 0 0 0 0 0 0 0 0 0 0 0 0 0 0 0 0 0 0 0
0 0 0 0 0 0 0 0 0 0 0 0 0 0 0 0 0 0 0 0 0 0 0 0 0 0 0 0 0 0 0 0 0 0 0 0 0 0 0 0 0 0 0
0 0 0 0 0 0 0 0 0 0 0 0 0 0 0 0 0 0 0 0 0 0 0 0 0 0 0 0 0 0 0 0 0 0 0 0 0 0 0 0 0 0 0
0 0 0 0 0 0 0 0 0 0 0 0 0 0 0 0 0 0 0 0 0 0 0 0 0 0 0 0 0 0 0 0 0 0 0 0 0 0 0 0 0 0 0
0 0 0 0 0 0 0 0 0 0 0 0 0 0 0 0 0 0 0 0 0 0 0 0 0 0 0 0 0 0 0 0 0 0 0 0 0 0 0 0 0 0 0
0 0 0 0 0 0 0 0 0 0 0 0 0 0 0 0 0 0 0 0 0 0 0 0 0 0 0 0 0 0 0 0 0 0 0 0 0 0 0 0 0 0 0
0 0 0 0 0 0 0 0 0 0 0 0 0 0 0 0 0 0 0 0 0 0 0 0 0 0 0 0 0 0 0 0 0 0 0 0 0 0 0 0 0 0 0
0 0 0 0 0 0 0 0 0 0 0 0 0 0 0 0 0 0 0 0 0 0 0 0 0 0 0 0 0 0 0 0 0 0 0 0 0 0 0 0 0 0 0
0 0 0 0 0 0 0 0 0 0 0 0 0 0 0 0 0 0 0 0 0 0 0 0 0 0 0 0 0 0 0 0 0 0 0 0 0 0 0 0 0 0 0
0 0 0 0 0 0 0 0 0 0 0 0 0 0 0 0 0 0 0 0 0 0 0 0 0 0 0 0 0 0 0 0 0 0 0 0 0 0 0 0 0 0 0
0 0 0 0 0 0 0 0 0 0 0 0 0 0 0 0 0 0 0 0 0 0 0 0 0 0 0 0 0 0 0 0 0 0 0 0 0 0 0 0 0 0 0
0 0 0 0 0 0 0 0 0 0 0 0 0 0 0 0 0 0 0 0 0 0 0 0 0 0 0 0 0 0 0 0 0 0 0 0 0 0 0 0 0 0 0
0 0 0 0 0 0 0 0 0 0 0 0 0 0 0 0 0 0 0 0 0 0 0 0 0 0 0 0 0 0 0 0 0 0 0 0 0 0 0 0 0 0 0
0 0 0 0 0 0 0 0 0 0 0 0 0 0 0 0 0 0 0 0 0 0 0 0 0 0 0 0 0 0 0 0 0 0 0 0 0 0 0 0 0 0 0
0 0 0 0 0 0 0 0 0 0 0 0 0 0 0 0 0 0 0 0 0 0 0 0 0 0 0 0 0 0 0 0 0 0 0 0 0 0 0 0 0 0 0
0 0 0 0 0 0 0 0 0 0 0 0 0 0 0 0 0 0 0 0 0 0 0 0 0 0 0 0 0 0 0 0 0 0 0 0 0 0 0 0 0 0 0
0 0 0 0 0 0 0 0 0 0 0 0 0 0 0 0 0 0 0 0 0 0 0 0 0 0 0 0 0 0 0 0 0 0 0 0 0 0 0 0 0 0 0
Wind_Speed
1 1 1 1 2 1 1 1 1 2 1 1 1 2 2 2 1 1 0 1 1 1 0 1 2 2 3 3 4 4 5 5 5 6 6 6 6 6 6 7 7 7 7
1 1 1 1 1 1 1 0 1 1 1 1 1 1 1 1 1 1 0 0 1 1 0 1 2 3 4 4 4 5 5 5 6 6 6 6 6 7 7 7 7 7 8
1 0 0 1 1 1 1 1 1 1 1 1 1 0 1 1 1 1 0 0 0 1 1 1 2 3 4 4 5 5 5 6 6 7 7 7 7 7 8 8 8 8 8
1 0 0 1 1 1 0 0 1 1 1 1 0 0 0 1 1 1 1 1 0 0 1 2 3 4 4 5 5 5 5 6 6 7 7 7 7 8 8 8 8 8 8
0 0 0 1 1 1 1 0 1 1 0 1 0 0 0 1 1 1 1 1 1 0 0 2 3 4 4 5 5 6 6 6 6 7 8 8 7 8 8 8 8 8 8
0 0 0 1 1 0 1 1 1 1 0 0 0 0 0 1 1 1 1 1 1 1 0 1 1 3 4 5 5 6 6 7 7 7 8 8 8 8 8 9 9 9 9
0 0 0 1 1 0 0 0 1 1 1 1 1 0 1 1 1 1 1 1 1 1 1 0 0 1 2 4 5 6 7 7 8 8 8 8 8 8 9 9 9 9 9
0 1 1 1 1 0 0 0 1 1 1 1 1 1 1 1 1 1 1 2 1 1 0 0 0 0 1 1 4 7 8 8 8 8 9 8 8 8 9 9 9 9 9
0 0 1 1 1 0 0 0 1 2 1 0 1 1 1 2 2 1 1 1 1 1 1 1 1 1 1 1 2 4 8 9 8 9 9 9 8 9 9 9 10 10 9
0 1 1 1 0 0 0 0 1 1 2 1 0 1 0 1 1 1 1 1 1 1 1 1 1 1 1 1 3 5 7 8 9 10 10 10 9 9 9 10 10 10 9
0 1 0 0 0 0 0 0 1 1 1 1 1 0 1 1 0 1 2 2 2 1 1 1 1 1 1 1 2 4 7 8 9 10 11 10 10 10 10 10 10 10 9
0 1 1 0 0 0 0 1 1 1 1 1 1 1 1 0 0 0 1 2 2 2 2 1 1 1 1 1 3 7 8 8 9 10 10 10 10 10 10 11 10 10 10
0 1 1 0 0 0 1 1 1 1 1 1 1 1 0 0 0 0 1 2 3 3 2 1 1 1 1 1 3 7 7 9 9 10 10 10 10 10 10 11 10 10 10
1 1 0 0 0 0 0 0 1 1 1 1 1 1 0 0 0 0 1 1 2 2 2 2 1 1 1 2 4 7 5 9 10 10 10 9 10 10 9 9 9 9 9
0 0 0 0 0 1 1 1 1 1 1 1 1 1 0 0 0 1 0 1 1 2 3 2 1 2 2 2 5 3 4 8 10 10 9 9 9 8 8 8 8 9 9
1 1 0 0 1 1 1 1 1 1 1 1 1 1 1 0 0 0 0 1 1 1 3 2 2 3 3 3 6 4 4 9 9 9 9 8 8 8 8 8 9 9 9
1 1 1 0 1 1 1 1 1 1 1 1 0 1 0 0 0 1 0 1 1 1 3 4 2 2 3 3 4 4 4 4 4 9 9 8 8 8 8 8 8 9 9
1 1 1 1 1 1 1 1 1 1 1 1 0 1 0 0 1 1 0 1 1 1 2 4 3 3 3 3 4 4 4 4 4 8 9 9 9 9 9 9 9 9 9
1 0 0 1 1 1 1 1 1 1 1 0 0 0 1 0 1 1 1 1 1 1 1 3 4 3 2 2 4 4 4 3 4 6 8 9 9 9 9 9 9 9 8
1 1 1 1 1 1 1 1 1 1 1 0 0 1 1 1 1 1 1 1 1 1 1 2 3 3 2 3 3 4 5 4 4 4 6 7 9 10 9 10 9 9 9
0 1 0 0 0 1 1 1 1 2 1 0 1 1 1 2 2 2 1 1 1 1 1 2 3 3 3 3 3 3 5 5 4 2 4 4 5 4 5 8 8 9 9
0 1 0 0 0 0 1 1 1 1 1 0 1 1 1 2 3 3 4 3 2 2 2 2 3 3 4 3 3 3 4 5 4 3 4 6 3 4 4 4 8 10 9
0 0 0 0 0 1 1 1 1 2 1 0 0 1 2 2 3 2 3 4 4 4 3 2 3 4 3 3 3 4 4 4 5 4 4 5 4 5 4 5 10 10 9
0 0 0 0 0 1 2 2 1 2 1 0 0 0 1 2 2 2 2 2 2 3 3 2 3 4 3 3 3 3 4 4 4 3 1 3 4 4 6 5 8 9 10
0 0 0 0 0 1 3 2 2 2 1 0 1 1 1 2 4 5 2 2 3 3 4 5 5 4 5 5 4 2 2 3 4 3 1 2 3 4 5 4 5 9 11
0 1 1 1 0 1 2 2 2 1 1 0 1 1 2 3 5 6 2 2 3 3 3 4 4 4 3 3 4 1 1 2 3 3 2 2 3 4 5 3 3 4 6
Wind_Direction
51 20 17 19 4 358 14 34 51 66 55 101 114 126 134 140 148 145 219 71 65 20 23 19 360 353 352 358 5 359 351 350 350 346 342 339 337 335 331 329 327 324 322
73 32 3 8 346 338 339 37 106 112 77 108 126 139 132 154 154 137 118 12 36 32 11 346 338 337 340 342 348 348 345 345 347 344 340 337 330 325 322 322 324 323 322
78 57 353 339 328 330 351 43 78 83 90 82 98 134 138 158 155 151 147 149 321 4 356 336 333 328 330 332 337 338 340 339 339 337 331 327 321 316 314 315 317 320 322
51 56 353 320 321 331 12 93 99 77 92 82 105 203 167 175 172 169 154 145 116 339 321 346 340 328 327 329 331 336 337 334 331 330 326 321 318 316 315 315 316 317 316
4 332 310 304 318 335 5 318 92 100 141 75 89 133 177 198 201 175 169 176 179 194 291 334 347 336 324 323 328 332 333 326 324 326 326 324 319 316 316 314 313 311 312
328 323 294 303 301 324 15 21 104 69 58 145 114 44 280 227 202 190 211 210 207 200 258 341 344 333 330 324 324 328 326 321 323 324 323 320 316 316 315 311 310 309 308
264 232 298 291 287 241 234 226 143 117 59 30 79 38 334 266 217 222 219 219 230 219 181 63 343 338 323 331 328 326 324 322 324 323 321 315 312 312 312 310 309 309 307
249 230 226 256 265 269 76 106 106 127 108 61 120 126 348 323 300 261 251 219 217 200 199 297 273 325 331 327 319 327 323 321 320 321 319 314 312 312 311 310 309 307 306
284 280 251 253 258 215 165 150 132 126 149 77 74 133 151 230 305 301 257 251 229 212 229 245 251 261 303 314 308 324 329 329 321 320 320 318 315 312 312 312 311 310 311
318 327 306 272 268 1 79 197 113 126 147 159 35 27 353 176 181 301 297 272 263 241 241 258 255 262 284 297 312 325 329 327 324 321 321 320 316 313 312 311 312 313 314
3 350 324 328 323 312 136 110 108 111 138 144 129 40 21 17 48 195 273 300 309 273 256 262 250 257 285 303 307 319 329 329 325 323 321 319 318 314 313 312 313 313 312
357 7 7 1 357 281 205 195 172 146 136 117 108 113 123 174 223 254 264 283 299 301 292 270 262 271 297 313 322 332 332 328 326 326 324 320 318 316 313 312 313 313 309
303 309 1 309 276 252 238 183 170 167 167 156 152 164 123 2 259 233 219 291 302 306 301 277 256 282 317 321 315 332 329 329 327 325 322 322 321 318 314 312 314 314 312
234 234 225 310 305 133 69 145 153 180 150 165 168 163 139 23 328 194 196 234 308 306 301 296 306 299 317 312 318 335 322 329 326 324 322 321 319 316 317 315 316 317 315
211 94 133 90 114 105 98 95 114 177 157 171 171 154 150 64 13 273 234 202 203 283 285 292 315 322 321 309 322 323 316 323 327 326 323 320 318 318 319 317 318 315 313
162 156 117 63 81 90 98 98 89 90 129 185 174 142 114 314 0 319 256 290 261 244 275 281 275 299 307 320 328 324 310 329 329 324 322 322 322 322 324 323 317 313 311
161 181 171 140 117 109 102 98 87 112 107 76 64 132 125 74 38 351 314 283 302 273 277 291 286 300 307 320 324 318 312 309 315 326 325 327 328 325 324 321 317 315 313
173 200 171 147 142 121 112 112 101 111 111 90 29 56 10 27 27 332 293 281 288 286 270 289 298 305 308 314 319 316 322 321 315 326 332 331 329 327 324 321 320 319 318
145 151 176 192 177 157 153 144 135 113 98 140 22 333 299 317 328 318 308 288 284 301 284 284 291 300 309 320 326 323 319 314 321 327 333 335 332 330 328 325 324 324 324
152 183 222 225 191 170 171 152 124 113 99 36 335 291 281 277 278 293 309 297 291 313 316 304 296 308 316 319 327 330 330 331 324 325 331 331 330 331 330 328 327 326 324
161 163 133 333 179 168 171 155 136 120 111 31 334 312 298 310 316 312 316 308 307 303 306 309 308 315 321 334 333 324 322 325 319 327 326 323 319 315 316 317 322 323 323
90 87 148 265 248 276 284 308 88 121 126 173 312 330 328 336 337 337 323 325 318 291 291 295 303 303 307 313 314 317 324 330 319 333 331 313 314 306 307 304 317 324 327
103 91 301 229 204 286 312 330 56 110 119 136 308 319 335 338 339 323 325 333 329 327 312 283 281 287 295 298 303 306 308 308 297 305 321 301 311 305 305 308 320 322 324
130 209 269 265 29 315 329 340 33 101 102 193 279 295 315 317 317 320 323 335 322 316 310 301 275 275 284 283 273 285 292 300 293 291 297 287 303 302 306 305 318 326 325
15 307 299 279 164 310 328 345 31 104 97 41 358 350 325 305 312 331 348 335 327 325 331 328 316 318 320 320 321 317 315 320 314 308 328 296 303 307 301 297 313 327 329
279 342 3 7 34 288 330 3 42 107 93 21 355 356 340 331 323 336 346 327 319 315 326 331 336 344 328 315 330 313 280 294 306 298 320 324 306 324 313 299 308 318 320